GFSNE_500_temp_003.txt.gz
Temp
-29 -30 -30 -30 -31 -31 -31 -31 -31 -31 -31 -32 -31 -31 -31 -30 -29 -28 -27 -26 -26 -25 -25 -25 -25 -24 -23 -22 -20 -20 -20 -20 -19 -18 -18 -18 -17 -17
-31 -31 -31 -31 -31 -31 -31 -31 -31 -31 -31 -32 -32 -32 -31 -31 -30 -30 -29 -28 -27 -27 -27 -26 -25 -25 -25 -23 -21 -20 -20 -20 -20 -19 -19 -18 -18 -17
-31 -31 -31 -31 -31 -31 -31 -31 -31 -31 -31 -31 -31 -32 -32 -31 -30 -31 -31 -29 -29 -28 -28 -28 -27 -27 -26 -25 -23 -22 -21 -20 -20 -20 -20 -19 -18 -18
-31 -32 -31 -31 -31 -31 -31 -32 -32 -31 -31 -30 -31 -32 -32 -31 -31 -31 -31 -31 -31 -30 -29 -29 -28 -28 -28 -26 -25 -23 -22 -21 -20 -20 -20 -20 -19 -19
-31 -31 -32 -32 -32 -33 -32 -32 -32 -31 -31 -31 -30 -31 -31 -32 -31 -31 -31 -31 -31 -30 -30 -29 -29 -29 -28 -27 -27 -26 -24 -23 -22 -21 -21 -20 -20 -19
-32 -33 -33 -33 -34 -34 -34 -33 -33 -32 -32 -31 -31 -31 -31 -31 -31 -31 -30 -31 -30 -30 -30 -30 -29 -29 -28 -28 -28 -27 -26 -25 -24 -22 -22 -21 -21 -20
-33 -34 -34 -34 -34 -34 -34 -34 -34 -33 -33 -32 -31 -31 -31 -31 -31 -31 -30 -30 -30 -30 -30 -29 -29 -29 -29 -29 -29 -29 -28 -27 -25 -24 -22 -22 -21 -21
-33 -34 -34 -34 -34 -34 -34 -34 -35 -35 -34 -33 -31 -31 -31 -31 -31 -31 -31 -31 -31 -30 -30 -30 -30 -29 -29 -29 -29 -29 -29 -28 -27 -26 -25 -24 -23 -22
-34 -35 -35 -35 -35 -35 -35 -35 -35 -35 -35 -34 -32 -31 -31 -31 -31 -31 -30 -30 -30 -30 -30 -30 -29 -29 -29 -29 -29 -29 -28 -28 -28 -28 -27 -26 -24 -23
-35 -35 -36 -36 -36 -36 -36 -36 -36 -35 -35 -34 -32 -32 -30 -30 -30 -30 -30 -30 -30 -30 -30 -30 -30 -30 -30 -29 -29 -29 -29 -28 -28 -28 -27 -27 -25 -24
-35 -35 -36 -36 -37 -37 -37 -37 -36 -36 -35 -34 -32 -31 -30 -30 -30 -30 -30 -29 -29 -30 -30 -29 -30 -29 -29 -29 -29 -29 -28 -28 -28 -28 -28 -27 -26 -26
-34 -35 -35 -36 -36 -36 -36 -36 -36 -35 -35 -33 -31 -30 -30 -30 -30 -30 -30 -30 -30 -30 -30 -29 -30 -30 -30 -30 -29 -29 -29 -28 -28 -28 -28 -28 -28 -27
-34 -34 -35 -35 -36 -36 -36 -35 -35 -35 -34 -32 -31 -30 -30 -29 -29 -29 -30 -30 -30 -30 -30 -30 -30 -30 -30 -31 -30 -30 -30 -29 -29 -28 -27 -27 -27 -27
-34 -34 -35 -35 -35 -35 -36 -35 -34 -33 -32 -31 -30 -30 -30 -30 -30 -30 -30 -30 -30 -30 -30 -30 -30 -30 -30 -31 -31 -31 -31 -30 -30 -30 -29 -28 -27 -27
-34 -34 -34 -34 -34 -34 -34 -34 -33 -32 -31 -31 -30 -30 -30 -30 -30 -30 -29 -29 -29 -29 -29 -29 -30 -31 -31 -31 -32 -32 -31 -31 -31 -30 -30 -30 -29 -28
-33 -33 -34 -33 -33 -33 -33 -33 -32 -31 -31 -30 -30 -30 -30 -30 -29 -29 -29 -29 -28 -28 -28 -28 -29 -31 -32 -32 -32 -33 -32 -32 -32 -31 -30 -30 -29 -29
-33 -33 -33 -33 -33 -33 -32 -32 -31 -31 -31 -31 -30 -30 -30 -29 -29 -29 -29 -28 -28 -28 -28 -28 -28 -30 -32 -33 -33 -33 -32 -32 -32 -31 -31 -30 -30 -29
-33 -33 -33 -33 -33 -33 -32 -32 -32 -32 -31 -31 -30 -30 -30 -30 -29 -29 -29 -29 -29 -29 -29 -29 -28 -29 -31 -33 -33 -33 -32 -32 -32 -31 -31 -31 -31 -30
-33 -33 -33 -33 -32 -32 -32 -32 -31 -31 -31 -31 -30 -30 -30 -30 -30 -30 -29 -29 -29 -29 -29 -29 -29 -29 -30 -32 -32 -32 -32 -32 -32 -32 -31 -31 -31 -30
-33 -33 -33 -32 -32 -32 -32 -32 -31 -31 -31 -31 -31 -31 -31 -30 -30 -30 -30 -30 -30 -30 -30 -30 -30 -30 -30 -31 -32 -32 -32 -32 -32 -32 -32 -32 -32 -32
-33 -33 -33 -33 -32 -32 -32 -32 -32 -31 -31 -31 -31 -31 -31 -31 -31 -31 -31 -30 -30 -30 -30 -30 -30 -30 -30 -31 -31 -32 -32 -33 -33 -33 -33 -32 -32 -32
-33 -33 -33 -33 -33 -33 -32 -32 -32 -32 -32 -32 -31 -31 -31 -31 -31 -31 -31 -31 -31 -31 -31 -31 -31 -31 -31 -31 -31 -31 -31 -32 -33 -33 -33 -33 -33 -33
-34 -33 -33 -33 -33 -33 -33 -33 -33 -32 -32 -32 -32 -32 -32 -32 -32 -32 -32 -32 -31 -31 -31 -31 -31 -31 -31 -31 -31 -32 -32 -32 -32 -32 -33 -33 -33 -33

GFSNE_500_temp_006.txt.gz
Temp
-30 -31 -31 -31 -31 -31 -31 -31 -32 -31 -30 -31 -31 -31 -31 -31 -30 -29 -28 -27 -27 -26 -26 -24 -23 -24 -25 -24 -23 -21 -21 -20 -19 -18 -18 -17 -17 -17
-31 -31 -32 -32 -32 -32 -32 -32 -32 -32 -32 -31 -32 -32 -32 -32 -32 -31 -30 -30 -29 -28 -27 -25 -25 -25 -24 -24 -24 -24 -23 -21 -21 -20 -19 -18 -17 -17
-33 -32 -32 -32 -32 -32 -32 -31 -31 -32 -32 -31 -31 -32 -32 -32 -32 -32 -32 -32 -31 -30 -29 -26 -26 -25 -25 -26 -25 -25 -24 -22 -21 -21 -20 -19 -19 -18
-32 -32 -32 -32 -32 -32 -32 -32 -32 -32 -32 -32 -31 -31 -32 -32 -32 -32 -32 -32 -31 -31 -30 -30 -26 -26 -27 -27 -26 -25 -25 -24 -23 -21 -22 -21 -19 -19
-32 -32 -32 -32 -32 -33 -33 -33 -33 -32 -32 -32 -32 -32 -31 -32 -32 -32 -32 -32 -31 -31 -31 -31 -30 -29 -28 -28 -27 -27 -26 -26 -24 -23 -21 -22 -22 -20
-33 -33 -33 -33 -33 -33 -33 -33 -34 -34 -34 -33 -32 -32 -32 -31 -32 -32 -32 -32 -31 -31 -31 -31 -31 -30 -30 -28 -28 -28 -27 -26 -25 -24 -22 -22 -22 -22
-33 -33 -33 -34 -34 -35 -34 -34 -34 -34 -34 -34 -34 -33 -33 -32 -31 -32 -32 -32 -31 -31 -31 -31 -31 -31 -31 -30 -30 -29 -28 -27 -26 -25 -24 -23 -23 -23
-34 -34 -34 -35 -35 -35 -36 -36 -35 -35 -35 -34 -34 -34 -33 -32 -32 -31 -31 -32 -32 -31 -31 -31 -31 -31 -30 -30 -30 -30 -30 -28 -27 -26 -25 -25 -25 -24
-34 -34 -34 -34 -35 -35 -36 -36 -36 -36 -35 -35 -35 -35 -34 -33 -32 -31 -31 -31 -31 -31 -31 -31 -31 -30 -31 -30 -30 -30 -29 -29 -28 -28 -27 -26 -25 -24
-34 -34 -34 -34 -35 -36 -36 -37 -37 -37 -36 -36 -35 -35 -35 -34 -32 -31 -31 -31 -31 -31 -31 -31 -31 -30 -30 -30 -30 -30 -30 -29 -29 -29 -28 -27 -26 -26
-34 -34 -34 -35 -35 -36 -36 -36 -37 -37 -37 -36 -35 -35 -35 -33 -31 -30 -30 -31 -30 -31 -31 -30 -31 -30 -30 -30 -30 -30 -30 -29 -29 -29 -29 -29 -28 -27
-34 -34 -34 -35 -35 -36 -36 -36 -36 -37 -36 -36 -35 -35 -34 -32 -30 -30 -30 -30 -30 -31 -31 -30 -31 -30 -30 -30 -30 -30 -29 -29 -29 -29 -29 -29 -29 -29
-33 -34 -34 -34 -35 -35 -36 -36 -36 -35 -35 -35 -35 -34 -32 -31 -30 -30 -30 -30 -30 -30 -30 -30 -30 -30 -30 -30 -30 -30 -30 -29 -29 -29 -29 -29 -29 -29
-33 -33 -34 -34 -34 -34 -35 -35 -35 -35 -34 -34 -33 -32 -31 -30 -30 -30 -30 -30 -30 -30 -29 -30 -30 -30 -30 -30 -31 -30 -30 -30 -30 -29 -29 -29 -29 -29
-33 -33 -33 -34 -34 -34 -34 -34 -34 -33 -33 -32 -32 -31 -31 -30 -30 -30 -30 -30 -30 -29 -29 -30 -30 -30 -30 -31 -31 -31 -31 -31 -31 -31 -30 -30 -29 -29
-33 -33 -33 -33 -33 -33 -33 -33 -33 -32 -32 -32 -31 -31 -31 -30 -30 -30 -30 -30 -30 -30 -29 -29 -28 -28 -29 -30 -31 -32 -32 -32 -31 -31 -31 -30 -30 -30
-33 -33 -33 -33 -33 -33 -33 -33 -32 -32 -31 -31 -31 -31 -31 -30 -30 -30 -29 -29 -29 -28 -28 -28 -28 -28 -28 -29 -31 -32 -33 -33 -32 -32 -32 -32 -31 -30
-33 -33 -33 -33 -33 -33 -33 -32 -32 -32 -32 -32 -31 -31 -31 -30 -30 -30 -29 -29 -29 -29 -29 -29 -29 -29 -29 -29 -31 -32 -33 -33 -32 -32 -32 -32 -32 -31
-33 -33 -33 -33 -33 -32 -32 -33 -32 -32 -32 -32 -31 -31 -30 -30 -30 -30 -30 -29 -29 -29 -29 -29 -29 -29 -29 -30 -30 -32 -33 -33 -33 -32 -32 -32 -32 -31
-33 -33 -33 -33 -33 -32 -32 -32 -32 -32 -32 -31 -31 -31 -31 -31 -30 -30 -30 -30 -30 -30 -30 -30 -30 -30 -30 -30 -31 -31 -32 -32 -32 -32 -32 -32 -32 -31
-34 -34 -33 -33 -33 -33 -32 -32 -32 -32 -32 -32 -31 -31 -31 -31 -31 -31 -31 -31 -31 -30 -30 -30 -30 -30 -31 -31 -31 -31 -31 -32 -32 -32 -33 -33 -33 -32
-34 -34 -34 -33 -33 -33 -33 -32 -32 -32 -32 -32 -32 -32 -31 -31 -31 -31 -31 -31 -31 -31 -31 -31 -31 -31 -31 -31 -31 -31 -31 -31 -31 -32 -32 -33 -33 -33
-35 -35 -34 -34 -34 -33 -33 -33 -33 -33 -33 -32 -32 -32 -32 -32 -32 -32 -32 -32 -32 -31 -31 -32 -31 -31 -31 -31 -31 -31 -31 -31 -31 -31 -32 -32 -32 -33

GFSNE_500_temp_009.txt.gz
Temp
-31 -31 -31 -32 -32 -32 -32 -32 -32 -31 -31 -32 -31 -32 -31 -31 -30 -29 -28 -28 -27 -26 -26 -25 -24 -24 -24 -24 -23 -23 -22 -22 -21 -19 -18 -18 -17 -16
-32 -31 -31 -32 -32 -32 -32 -32 -32 -32 -32 -32 -32 -32 -32 -32 -32 -32 -32 -31 -31 -29 -28 -27 -26 -25 -25 -24 -24 -24 -23 -22 -22 -21 -20 -19 -18 -17
-32 -32 -32 -32 -32 -32 -32 -32 -32 -32 -32 -32 -32 -32 -32 -32 -32 -32 -32 -32 -32 -31 -31 -30 -28 -27 -26 -24 -24 -25 -24 -23 -23 -22 -21 -20 -19 -18
-33 -32 -32 -32 -32 -32 -32 -32 -33 -33 -32 -32 -32 -32 -32 -32 -32 -32 -32 -32 -32 -32 -32 -31 -30 -29 -27 -26 -25 -25 -25 -24 -24 -23 -23 -21 -20 -19
-32 -32 -33 -32 -33 -33 -33 -33 -34 -34 -34 -33 -33 -33 -33 -33 -32 -32 -32 -33 -32 -32 -32 -32 -31 -31 -30 -28 -27 -26 -25 -25 -25 -24 -24 -22 -22 -20
-33 -32 -32 -33 -33 -34 -34 -34 -34 -34 -35 -35 -34 -34 -33 -34 -33 -33 -32 -32 -32 -32 -32 -32 -32 -31 -31 -30 -28 -26 -26 -25 -25 -25 -25 -24 -22 -22
-32 -32 -33 -33 -34 -34 -34 -34 -34 -35 -35 -36 -35 -34 -34 -34 -34 -33 -33 -32 -32 -32 -32 -32 -32 -31 -31 -31 -29 -28 -26 -26 -26 -26 -25 -25 -23 -22
-33 -33 -33 -34 -34 -34 -34 -34 -35 -35 -36 -36 -36 -35 -34 -34 -34 -34 -33 -32 -32 -32 -31 -32 -32 -31 -31 -31 -31 -30 -30 -27 -27 -28 -26 -26 -24 -23
-33 -33 -33 -34 -34 -34 -35 -35 -36 -36 -36 -36 -37 -36 -35 -35 -34 -34 -34 -33 -32 -32 -31 -32 -32 -32 -31 -31 -31 -31 -30 -30 -29 -27 -27 -26 -26 -24
-33 -33 -34 -34 -34 -34 -35 -35 -36 -36 -36 -36 -37 -36 -36 -35 -35 -34 -34 -33 -32 -32 -31 -31 -32 -31 -31 -31 -31 -31 -31 -31 -31 -29 -28 -27 -27 -26
-33 -33 -34 -34 -34 -34 -35 -35 -36 -37 -37 -37 -37 -37 -36 -36 -35 -35 -34 -33 -32 -31 -31 -31 -31 -31 -31 -31 -31 -31 -31 -31 -30 -30 -29 -29 -28 -28
-34 -34 -34 -34 -34 -34 -34 -35 -36 -36 -36 -36 -37 -37 -36 -36 -35 -35 -34 -32 -31 -31 -31 -31 -31 -31 -31 -31 -31 -31 -31 -30 -30 -30 -30 -30 -30 -29
-33 -33 -33 -33 -34 -34 -34 -35 -35 -35 -35 -36 -36 -36 -36 -35 -35 -34 -32 -32 -31 -31 -31 -30 -31 -31 -31 -31 -31 -31 -31 -30 -30 -30 -30 -30 -30 -30
-33 -33 -33 -33 -33 -34 -34 -34 -34 -34 -35 -35 -35 -35 -35 -34 -33 -32 -31 -31 -30 -30 -30 -30 -31 -31 -30 -31 -31 -30 -30 -30 -30 -30 -30 -30 -30 -30
-33 -33 -33 -33 -33 -33 -34 -34 -33 -33 -33 -33 -33 -33 -33 -32 -32 -31 -31 -30 -30 -30 -30 -30 -30 -30 -30 -30 -30 -30 -30 -30 -30 -30 -30 -30 -30 -30
-33 -33 -33 -33 -33 -33 -33 -33 -33 -33 -32 -32 -32 -32 -32 -31 -31 -31 -30 -30 -30 -30 -30 -30 -30 -30 -30 -30 -30 -30 -30 -31 -31 -31 -31 -31 -30 -30
-33 -34 -34 -33 -33 -33 -33 -33 -33 -33 -32 -32 -32 -32 -31 -31 -31 -31 -31 -30 -30 -30 -30 -30 -30 -29 -29 -29 -29 -29 -30 -31 -32 -32 -32 -32 -31 -31
-33 -34 -34 -33 -33 -33 -33 -33 -33 -33 -32 -32 -32 -32 -31 -31 -31 -31 -30 -30 -30 -30 -29 -29 -29 -29 -29 -28 -29 -29 -30 -32 -33 -33 -33 -32 -32 -31
-34 -34 -34 -34 -33 -33 -33 -33 -33 -33 -32 -32 -32 -32 -31 -31 -30 -30 -30 -30 -30 -30 -30 -29 -29 -29 -29 -29 -29 -29 -31 -32 -33 -33 -33 -32 -32 -32
-34 -34 -34 -34 -34 -33 -33 -33 -33 -33 -32 -32 -32 -32 -32 -31 -31 -31 -30 -30 -30 -30 -30 -30 -30 -30 -30 -30 -30 -30 -30 -31 -32 -33 -32 -32 -32 -32
-35 -34 -34 -34 -34 -34 -34 -33 -33 -33 -33 -32 -32 -32 -32 -31 -31 -31 -31 -31 -31 -31 -30 -30 -30 -30 -30 -31 -31 -31 -31 -31 -31 -31 -32 -32 -32 -32
-35 -35 -35 -34 -34 -34 -34 -34 -34 -33 -33 -32 -32 -32 -32 -32 -32 -31 -31 -31 -31 -31 -31 -31 -31 -31 -31 -31 -31 -31 -31 -31 -31 -31 -31 -32 -32 -32
-35 -35 -35 -35 -35 -34 -34 -34 -34 -34 -33 -33 -33 -33 -32 -32 -32 -32 -32 -32 -32 -32 -31 -31 -31 -31 -31 -32 -31 -31 -31 -32 -32 -32 -32 -32 -32 -32

GFSNE_500_temp_012.txt.gz
Temp
-31 -32 -32 -32 -33 -32 -32 -33 -32 -31 -31 -32 -32 -32 -32 -32 -32 -32 -31 -30 -29 -28 -27 -26 -25 -25 -24 -23 -23 -23 -23 -22 -20 -19 -19 -17 -17 -17
-32 -33 -33 -33 -33 -33 -32 -32 -32 -32 -31 -31 -32 -32 -32 -32 -32 -32 -32 -32 -32 -31 -29 -28 -27 -26 -25 -24 -23 -23 -23 -24 -23 -22 -20 -18 -17 -17
-33 -33 -33 -33 -32 -32 -32 -32 -32 -32 -32 -31 -32 -32 -32 -32 -32 -32 -32 -32 -32 -32 -32 -31 -30 -28 -26 -25 -24 -24 -23 -24 -24 -23 -22 -20 -19 -18
-33 -33 -33 -33 -32 -32 -32 -33 -33 -33 -33 -33 -33 -34 -33 -33 -32 -32 -32 -32 -32 -32 -32 -32 -32 -31 -29 -27 -26 -25 -24 -25 -25 -24 -23 -22 -21 -19
-33 -33 -33 -32 -32 -32 -33 -33 -34 -34 -34 -34 -34 -34 -34 -34 -33 -33 -33 -33 -32 -32 -32 -32 -32 -32 -31 -29 -28 -26 -25 -25 -25 -25 -23 -23 -22 -21
-33 -33 -33 -32 -32 -33 -33 -34 -34 -34 -34 -34 -34 -34 -35 -35 -35 -34 -34 -34 -33 -33 -32 -32 -32 -32 -32 -31 -30 -29 -28 -27 -26 -26 -25 -24 -23 -22
-33 -33 -33 -32 -33 -33 -33 -34 -34 -34 -35 -35 -35 -35 -35 -35 -35 -35 -34 -34 -34 -34 -33 -33 -32 -32 -32 -31 -31 -31 -29 -28 -27 -25 -25 -24 -24 -23
-33 -33 -33 -33 -33 -33 -34 -34 -34 -35 -35 -36 -36 -36 -36 -36 -36 -36 -35 -34 -34 -34 -33 -32 -33 -32 -32 -32 -31 -31 -30 -30 -29 -26 -26 -25 -25 -24
-33 -33 -33 -33 -33 -34 -34 -34 -34 -35 -36 -36 -36 -37 -37 -37 -37 -36 -36 -35 -34 -34 -33 -32 -32 -33 -32 -32 -32 -31 -31 -31 -30 -29 -28 -27 -26 -25
-33 -33 -33 -33 -33 -34 -34 -34 -35 -35 -36 -37 -37 -37 -37 -38 -37 -36 -36 -35 -34 -34 -33 -32 -32 -32 -32 -32 -32 -32 -31 -31 -31 -31 -30 -28 -26 -26
-33 -33 -33 -33 -33 -34 -34 -34 -35 -35 -36 -36 -36 -37 -37 -37 -37 -36 -36 -35 -34 -34 -34 -33 -32 -32 -32 -32 -32 -32 -31 -31 -31 -31 -31 -29 -27 -26
-33 -33 -33 -33 -33 -34 -34 -34 -34 -35 -35 -35 -36 -37 -37 -37 -37 -36 -35 -35 -34 -34 -34 -33 -32 -31 -31 -32 -32 -31 -31 -31 -31 -31 -31 -31 -30 -30
-33 -33 -33 -33 -33 -33 -34 -34 -34 -34 -34 -35 -35 -36 -36 -36 -36 -36 -35 -35 -34 -34 -33 -32 -31 -31 -31 -31 -31 -31 -31 -31 -31 -31 -31 -31 -31 -31
-33 -33 -33 -33 -33 -33 -33 -33 -34 -34 -34 -34 -34 -35 -35 -35 -35 -35 -35 -35 -34 -33 -31 -31 -31 -31 -31 -31 -32 -32 -31 -31 -31 -31 -31 -31 -31 -31
-33 -33 -33 -33 -33 -33 -33 -33 -33 -33 -33 -33 -33 -33 -34 -34 -34 -34 -33 -33 -32 -31 -31 -31 -31 -31 -31 -31 -31 -31 -31 -31 -31 -31 -31 -31 -31 -30
-33 -33 -33 -34 -34 -33 -33 -33 -33 -33 -33 -33 -33 -33 -33 -32 -32 -32 -32 -32 -31 -31 -31 -31 -31 -31 -31 -31 -31 -30 -30 -30 -30 -30 -31 -31 -31 -30
-33 -33 -33 -34 -34 -33 -33 -33 -33 -33 -33 -33 -33 -32 -32 -32 -32 -31 -31 -31 -31 -30 -30 -30 -30 -30 -30 -30 -30 -30 -30 -30 -30 -30 -31 -31 -31 -31
-33 -33 -34 -34 -34 -34 -33 -33 -33 -33 -33 -33 -33 -33 -33 -32 -32 -32 -31 -31 -31 -30 -31 -30 -30 -30 -29 -29 -29 -30 -30 -30 -30 -30 -31 -31 -31 -31
-33 -34 -34 -34 -34 -34 -34 -33 -33 -33 -33 -33 -33 -32 -32 -32 -32 -32 -31 -31 -31 -30 -30 -30 -30 -30 -30 -29 -29 -29 -29 -30 -30 -31 -32 -32 -32 -33
-34 -34 -35 -35 -34 -34 -34 -34 -34 -33 -33 -33 -33 -33 -32 -32 -32 -32 -31 -31 -31 -30 -30 -30 -30 -30 -30 -30 -30 -29 -29 -30 -30 -31 -32 -33 -33 -32
-34 -35 -35 -35 -35 -34 -34 -34 -34 -34 -33 -33 -33 -33 -32 -32 -32 -32 -32 -32 -31 -31 -31 -31 -31 -30 -30 -30 -30 -30 -30 -30 -30 -30 -31 -31 -32 -32
-35 -35 -35 -35 -35 -35 -35 -34 -34 -34 -34 -34 -33 -33 -33 -32 -32 -32 -32 -32 -32 -32 -31 -31 -31 -31 -31 -31 -31 -31 -31 -31 -31 -31 -31 -31 -31 -31
-36 -36 -36 -36 -36 -35 -35 -35 -35 -34 -34 -34 -34 -34 -33 -33 -33 -32 -32 -32 -32 -32 -32 -32 -32 -32 -31 -31 -31 -32 -32 -31 -31 -31 -31 -31 -32 -32

GFSNE_500_temp_018.txt.gz
Temp
-25 -27 -28 -30 -31 -31 -31 -32 -31 -31 -30 -31 -31 -31 -31 -31 -31 -31 -31 -31 -31 -31 -31 -30 -29 -28 -26 -24 -23 -23 -23 -22 -21 -20 -19 -17 -17 -17
-28 -29 -31 -31 -31 -32 -32 -32 -32 -32 -30 -31 -31 -31 -31 -31 -31 -31 -32 -31 -31 -31 -31 -32 -31 -30 -29 -26 -25 -24 -24 -24 -23 -22 -20 -19 -18 -18
-30 -31 -32 -32 -32 -32 -32 -32 -32 -32 -31 -32 -32 -32 -33 -33 -33 -33 -33 -33 -32 -32 -32 -32 -32 -31 -31 -30 -27 -26 -25 -25 -24 -23 -22 -21 -20 -19
-31 -32 -32 -32 -32 -32 -32 -32 -32 -32 -32 -32 -33 -33 -33 -33 -33 -33 -33 -33 -33 -33 -32 -32 -32 -32 -31 -31 -30 -29 -27 -26 -26 -24 -23 -22 -22 -21
-32 -32 -32 -32 -32 -32 -32 -33 -33 -32 -32 -33 -33 -33 -33 -33 -33 -33 -34 -34 -34 -34 -33 -33 -32 -32 -32 -32 -31 -30 -29 -28 -27 -26 -24 -24 -23 -22
-32 -32 -32 -32 -32 -32 -33 -33 -32 -32 -33 -33 -33 -33 -33 -34 -34 -34 -34 -34 -34 -34 -34 -34 -33 -32 -32 -32 -32 -31 -30 -29 -28 -27 -26 -24 -24 -23
-33 -32 -32 -32 -32 -33 -33 -33 -33 -33 -33 -33 -33 -33 -34 -34 -34 -35 -35 -35 -35 -35 -34 -34 -34 -33 -32 -32 -32 -32 -31 -30 -29 -27 -27 -26 -25 -24
-33 -33 -33 -33 -33 -33 -33 -32 -33 -33 -33 -33 -33 -34 -34 -34 -35 -35 -36 -36 -36 -36 -35 -35 -34 -33 -33 -32 -32 -32 -32 -32 -30 -29 -28 -27 -26 -25
-33 -33 -33 -33 -33 -33 -33 -33 -33 -33 -33 -33 -33 -34 -34 -34 -35 -36 -36 -37 -36 -36 -36 -35 -35 -34 -33 -32 -32 -33 -33 -32 -32 -31 -30 -29 -27 -26
-33 -33 -33 -33 -33 -33 -32 -33 -33 -33 -33 -33 -33 -33 -34 -35 -35 -36 -37 -37 -37 -37 -36 -36 -35 -35 -33 -33 -32 -33 -33 -33 -33 -32 -31 -30 -28 -28
-33 -33 -33 -33 -33 -32 -33 -33 -33 -33 -33 -33 -33 -33 -34 -35 -36 -37 -37 -37 -37 -37 -36 -36 -35 -35 -34 -33 -33 -33 -33 -33 -33 -32 -32 -31 -31 -29
-33 -33 -33 -33 -33 -32 -33 -33 -33 -33 -33 -33 -33 -33 -34 -35 -36 -37 -37 -37 -37 -37 -37 -36 -36 -35 -34 -33 -33 -33 -33 -33 -33 -32 -32 -31 -31 -31
-33 -33 -33 -33 -33 -33 -33 -33 -33 -33 -33 -33 -33 -33 -34 -34 -36 -36 -37 -37 -37 -37 -37 -37 -36 -35 -34 -33 -33 -33 -33 -33 -33 -32 -32 -32 -31 -31
-33 -33 -33 -33 -33 -33 -33 -33 -33 -33 -33 -33 -33 -33 -34 -34 -35 -36 -36 -36 -36 -36 -36 -36 -35 -34 -34 -33 -33 -33 -33 -33 -33 -33 -32 -32 -32 -31
-33 -33 -33 -33 -33 -33 -33 -34 -34 -33 -33 -33 -33 -33 -33 -34 -34 -35 -36 -36 -35 -35 -35 -35 -35 -34 -34 -34 -33 -33 -32 -33 -33 -33 -32 -32 -32 -31
-33 -33 -33 -33 -33 -34 -34 -34 -34 -33 -33 -33 -33 -33 -33 -34 -34 -34 -35 -35 -35 -35 -35 -34 -34 -34 -34 -33 -33 -32 -32 -32 -32 -32 -32 -31 -32 -32
-33 -33 -33 -33 -33 -34 -34 -34 -34 -34 -33 -33 -33 -33 -33 -34 -34 -34 -34 -34 -35 -35 -35 -34 -34 -34 -33 -33 -32 -32 -32 -32 -32 -32 -32 -32 -32 -32
-34 -34 -34 -34 -34 -34 -34 -34 -34 -34 -34 -33 -33 -33 -33 -34 -34 -34 -34 -34 -34 -34 -34 -34 -33 -33 -32 -32 -32 -31 -31 -32 -32 -32 -32 -32 -32 -32
-35 -35 -35 -35 -35 -35 -35 -35 -35 -34 -34 -34 -33 -33 -33 -33 -34 -33 -33 -33 -33 -33 -33 -32 -32 -32 -32 -31 -31 -31 -31 -31 -31 -31 -31 -31 -31 -31
-35 -35 -35 -35 -35 -35 -35 -35 -35 -35 -34 -34 -34 -33 -33 -33 -33 -34 -33 -33 -33 -33 -32 -32 -32 -32 -32 -31 -31 -31 -31 -31 -31 -31 -31 -31 -31 -31
-35 -36 -36 -36 -36 -36 -36 -36 -35 -35 -35 -35 -34 -34 -34 -33 -33 -33 -33 -33 -33 -33 -33 -32 -32 -32 -32 -32 -31 -31 -31 -31 -31 -31 -31 -31 -31 -31
-36 -36 -36 -36 -36 -36 -36 -36 -36 -36 -35 -35 -35 -34 -34 -34 -33 -33 -33 -33 -33 -33 -33 -33 -32 -32 -32 -31 -31 -31 -31 -31 -31 -31 -31 -32 -32 -32
-36 -36 -36 -36 -36 -37 -37 -37 -37 -37 -36 -36 -35 -35 -35 -34 -34 -34 -33 -33 -33 -33 -33 -32 -32 -32 -32 -32 -31 -31 -31 -31 -31 -31 -31 -31 -31 -31

GFSNE_500_temp_024.txt.gz
Temp
-22 -22 -23 -23 -25 -27 -29 -29 -30 -30 -30 -31 -32 -32 -32 -31 -31 -31 -31 -31 -30 -30 -30 -30 -29 -29 -29 -28 -28 -27 -26 -25 -23 -21 -21 -19 -18 -18
-23 -23 -23 -24 -27 -29 -30 -31 -31 -32 -31 -32 -32 -32 -32 -31 -31 -31 -31 -31 -31 -31 -31 -31 -30 -30 -30 -30 -29 -29 -28 -27 -26 -24 -22 -22 -20 -19
-23 -24 -25 -27 -29 -31 -31 -32 -32 -32 -32 -32 -32 -32 -32 -32 -32 -32 -31 -32 -32 -32 -32 -32 -32 -32 -31 -30 -30 -30 -29 -29 -29 -26 -24 -24 -23 -21
-23 -25 -26 -29 -30 -31 -32 -32 -33 -32 -32 -32 -32 -32 -32 -32 -32 -32 -32 -32 -32 -32 -32 -32 -32 -32 -32 -32 -31 -30 -30 -30 -30 -29 -27 -24 -24 -23
-24 -26 -28 -29 -31 -32 -33 -32 -33 -32 -32 -32 -32 -32 -32 -32 -32 -32 -33 -33 -32 -32 -32 -31 -31 -31 -32 -32 -32 -32 -30 -30 -31 -31 -28 -27 -25 -24
-25 -27 -29 -31 -32 -32 -33 -33 -32 -32 -32 -32 -32 -32 -32 -32 -33 -33 -33 -33 -32 -32 -31 -31 -31 -31 -32 -32 -32 -32 -31 -31 -30 -31 -30 -28 -27 -25
-27 -29 -31 -31 -32 -33 -32 -32 -32 -32 -32 -32 -32 -32 -32 -33 -33 -33 -33 -32 -32 -32 -31 -31 -32 -33 -33 -33 -33 -33 -32 -32 -31 -31 -30 -29 -28 -26
-29 -30 -32 -32 -32 -32 -32 -32 -32 -32 -32 -32 -32 -32 -33 -33 -33 -33 -33 -32 -31 -32 -31 -34 -34 -35 -36 -34 -33 -33 -32 -32 -31 -31 -31 -30 -29 -28
-30 -31 -32 -32 -32 -32 -32 -32 -32 -32 -32 -32 -32 -33 -33 -33 -33 -33 -32 -32 -32 -33 -34 -35 -35 -36 -37 -35 -34 -34 -34 -33 -33 -32 -31 -30 -30 -29
-31 -32 -32 -33 -32 -32 -32 -32 -32 -32 -32 -32 -33 -33 -33 -33 -33 -33 -32 -33 -33 -34 -35 -36 -37 -37 -37 -36 -36 -35 -34 -34 -33 -33 -32 -32 -30 -29
-32 -32 -33 -33 -33 -32 -32 -32 -32 -32 -33 -33 -33 -33 -33 -33 -33 -33 -33 -34 -35 -36 -36 -37 -37 -37 -37 -37 -36 -35 -35 -34 -34 -33 -33 -32 -32 -30
-32 -33 -33 -33 -33 -33 -33 -32 -33 -33 -33 -33 -34 -34 -33 -33 -33 -33 -33 -34 -35 -36 -36 -37 -37 -37 -37 -37 -36 -35 -35 -34 -34 -33 -33 -33 -32 -31
-33 -34 -34 -34 -33 -33 -33 -33 -33 -33 -33 -34 -34 -34 -34 -33 -33 -33 -34 -35 -35 -36 -36 -37 -37 -37 -37 -37 -36 -35 -35 -34 -34 -34 -33 -33 -33 -32
-34 -34 -34 -34 -34 -34 -33 -33 -33 -33 -34 -34 -34 -34 -34 -33 -33 -34 -34 -35 -35 -36 -36 -36 -37 -37 -37 -37 -36 -36 -35 -35 -34 -34 -33 -33 -33 -32
-34 -34 -34 -34 -34 -34 -34 -34 -34 -34 -34 -34 -34 -34 -34 -34 -34 -34 -34 -35 -35 -36 -36 -36 -36 -37 -37 -37 -36 -36 -35 -35 -34 -34 -33 -33 -33 -33
-34 -35 -35 -35 -35 -35 -35 -35 -34 -34 -34 -34 -34 -34 -34 -34 -34 -34 -35 -35 -35 -36 -35 -36 -36 -36 -37 -36 -36 -36 -35 -35 -35 -34 -34 -33 -33 -33
-35 -35 -35 -35 -35 -35 -35 -35 -35 -35 -35 -35 -35 -34 -34 -34 -34 -34 -34 -35 -35 -35 -36 -36 -36 -36 -36 -36 -36 -36 -35 -35 -35 -34 -33 -33 -33 -33
-35 -35 -35 -35 -35 -35 -36 -36 -36 -36 -35 -35 -35 -35 -35 -35 -34 -34 -34 -35 -35 -35 -36 -36 -36 -35 -36 -36 -36 -36 -35 -34 -34 -34 -34 -33 -33 -33
-35 -35 -35 -35 -35 -36 -36 -36 -36 -36 -36 -36 -35 -35 -35 -35 -35 -34 -34 -35 -35 -35 -35 -35 -36 -36 -35 -35 -35 -35 -34 -34 -34 -34 -34 -34 -33 -33
-35 -35 -35 -35 -35 -36 -36 -36 -36 -36 -36 -36 -36 -36 -35 -35 -35 -35 -35 -35 -35 -35 -35 -35 -35 -35 -35 -35 -35 -34 -34 -33 -33 -33 -33 -33 -33 -33
-35 -35 -35 -35 -35 -36 -36 -36 -36 -37 -37 -37 -37 -36 -36 -36 -35 -35 -35 -35 -35 -35 -35 -35 -34 -34 -34 -35 -34 -34 -34 -33 -33 -33 -33 -33 -33 -33
-36 -36 -36 -36 -36 -36 -36 -36 -36 -37 -37 -37 -37 -37 -36 -36 -36 -35 -35 -35 -35 -35 -35 -35 -35 -35 -34 -34 -34 -34 -33 -33 -33 -33 -32 -32 -32 -32
-36 -36 -36 -36 -36 -36 -36 -36 -36 -37 -37 -37 -37 -37 -37 -37 -36 -36 -35 -35 -35 -35 -35 -35 -35 -35 -35 -34 -34 -34 -33 -33 -33 -32 -32 -32 -32 -32

GFSNE_500_temp_027.txt.gz
Temp
-21 -21 -22 -23 -23 -23 -23 -24 -25 -27 -28 -30 -32 -32 -32 -32 -32 -32 -32 -31 -31 -31 -30 -30 -30 -29 -29 -29 -28 -28 -28 -27 -26 -25 -23 -20 -18 -18
-22 -22 -23 -24 -23 -23 -24 -26 -29 -30 -30 -31 -32 -32 -32 -32 -32 -32 -31 -31 -31 -31 -31 -31 -30 -30 -30 -30 -29 -29 -28 -28 -28 -27 -26 -24 -21 -20
-22 -23 -24 -24 -24 -25 -26 -28 -30 -32 -31 -31 -32 -32 -31 -32 -32 -32 -31 -31 -31 -31 -31 -31 -31 -31 -31 -31 -30 -30 -29 -29 -28 -28 -28 -26 -25 -23
-23 -24 -24 -24 -25 -26 -29 -30 -32 -32 -31 -30 -32 -32 -32 -32 -31 -31 -31 -32 -31 -32 -32 -32 -32 -32 -32 -32 -31 -31 -31 -30 -29 -29 -29 -28 -27 -25
-24 -24 -24 -25 -27 -28 -30 -32 -32 -32 -32 -31 -31 -32 -32 -32 -32 -32 -32 -32 -32 -33 -32 -32 -32 -32 -32 -31 -31 -31 -31 -31 -30 -30 -29 -29 -28 -27
-24 -25 -26 -27 -28 -31 -32 -32 -32 -32 -32 -32 -32 -31 -32 -32 -32 -32 -32 -33 -33 -32 -32 -32 -31 -31 -31 -31 -31 -31 -30 -31 -31 -31 -30 -30 -30 -28
-26 -26 -27 -28 -30 -31 -32 -33 -32 -32 -32 -32 -32 -32 -32 -32 -32 -33 -33 -32 -33 -32 -31 -31 -31 -31 -31 -31 -31 -31 -31 -31 -31 -31 -30 -30 -30 -29
-27 -27 -29 -30 -32 -32 -32 -33 -33 -32 -32 -32 -32 -32 -32 -32 -32 -33 -33 -33 -32 -32 -31 -32 -31 -31 -32 -32 -32 -32 -32 -32 -32 -32 -32 -31 -30 -30
-28 -29 -31 -32 -33 -33 -33 -33 -32 -32 -32 -31 -32 -32 -32 -32 -33 -33 -33 -32 -32 -32 -32 -32 -32 -33 -34 -35 -35 -35 -34 -34 -33 -33 -32 -32 -31 -30
-30 -31 -32 -33 -33 -33 -34 -33 -33 -32 -32 -32 -32 -32 -32 -33 -33 -33 -33 -33 -32 -32 -32 -34 -34 -35 -36 -36 -36 -36 -35 -36 -34 -33 -33 -32 -31 -30
-31 -32 -33 -33 -34 -34 -34 -34 -33 -33 -33 -33 -33 -33 -33 -33 -33 -33 -33 -33 -33 -33 -34 -35 -36 -36 -37 -37 -37 -37 -36 -36 -35 -34 -33 -32 -32 -31
-32 -33 -33 -34 -34 -34 -34 -34 -34 -33 -33 -33 -33 -33 -33 -33 -34 -33 -33 -33 -33 -34 -35 -36 -36 -36 -37 -37 -38 -37 -37 -36 -35 -34 -33 -33 -32 -32
-33 -33 -34 -34 -35 -34 -34 -34 -34 -34 -34 -34 -34 -34 -34 -34 -34 -34 -33 -33 -34 -34 -35 -35 -36 -36 -37 -37 -38 -37 -37 -36 -35 -34 -34 -33 -33 -31
-33 -34 -34 -34 -35 -35 -35 -35 -34 -34 -34 -34 -34 -34 -34 -34 -34 -34 -34 -34 -34 -35 -35 -35 -36 -37 -37 -37 -38 -37 -36 -35 -35 -35 -35 -33 -33 -32
-34 -34 -35 -35 -35 -35 -35 -35 -35 -35 -35 -35 -34 -34 -35 -34 -34 -34 -34 -34 -35 -35 -36 -36 -36 -36 -37 -37 -37 -37 -36 -35 -35 -35 -34 -34 -33 -33
-34 -35 -35 -35 -35 -35 -35 -36 -36 -36 -36 -35 -35 -35 -35 -35 -35 -35 -34 -34 -35 -35 -36 -36 -36 -36 -37 -37 -37 -36 -36 -35 -35 -35 -35 -34 -34 -33
-34 -35 -35 -35 -35 -35 -35 -36 -36 -36 -36 -36 -36 -35 -35 -35 -35 -35 -35 -34 -35 -35 -36 -36 -36 -36 -36 -37 -37 -36 -36 -35 -35 -35 -34 -34 -34 -34
-34 -35 -35 -35 -35 -35 -35 -36 -36 -36 -36 -36 -36 -36 -36 -35 -35 -35 -35 -35 -35 -35 -36 -36 -36 -36 -36 -36 -36 -36 -36 -35 -35 -35 -34 -34 -34 -34
-35 -35 -35 -35 -35 -35 -35 -36 -36 -36 -36 -37 -37 -36 -36 -36 -36 -35 -35 -35 -35 -35 -35 -36 -36 -36 -36 -36 -36 -36 -35 -35 -35 -35 -35 -34 -34 -34
-35 -35 -35 -35 -35 -36 -36 -36 -36 -36 -36 -37 -37 -37 -37 -36 -36 -36 -35 -35 -35 -35 -35 -35 -35 -36 -36 -36 -36 -36 -35 -35 -35 -35 -35 -34 -34 -33
-35 -36 -36 -36 -36 -36 -36 -36 -36 -36 -36 -37 -37 -37 -37 -37 -36 -36 -36 -35 -35 -35 -35 -35 -35 -35 -36 -35 -35 -35 -35 -34 -34 -34 -34 -34 -34 -33
-36 -36 -36 -36 -36 -36 -36 -36 -36 -37 -36 -37 -37 -37 -37 -37 -37 -36 -36 -36 -35 -35 -35 -35 -35 -35 -35 -35 -35 -35 -35 -34 -34 -34 -34 -34 -34 -33
-36 -36 -36 -36 -36 -36 -36 -36 -36 -37 -37 -37 -37 -37 -37 -37 -37 -37 -37 -36 -36 -35 -35 -35 -35 -35 -35 -35 -35 -35 -34 -34 -34 -34 -33 -34 -34 -33

GFSNE_500_temp_030.txt.gz
Temp
-21 -21 -21 -22 -22 -23 -24 -24 -24 -24 -24 -24 -26 -28 -30 -31 -31 -31 -31 -31 -31 -31 -31 -31 -30 -30 -30 -30 -29 -29 -29 -28 -28 -27 -25 -22 -20 -19
-22 -22 -22 -23 -23 -24 -25 -25 -25 -25 -25 -26 -27 -30 -31 -31 -31 -31 -31 -31 -31 -31 -31 -31 -31 -30 -30 -30 -30 -29 -29 -29 -28 -28 -27 -26 -24 -21
-22 -22 -23 -24 -25 -25 -25 -25 -26 -26 -27 -28 -30 -31 -31 -31 -31 -31 -31 -31 -31 -31 -31 -31 -31 -31 -30 -30 -30 -30 -30 -29 -29 -28 -28 -28 -27 -25
-23 -23 -25 -25 -25 -25 -26 -26 -27 -28 -30 -30 -31 -32 -32 -31 -31 -31 -31 -31 -31 -31 -31 -31 -31 -31 -31 -31 -31 -31 -31 -30 -30 -29 -29 -28 -28 -27
-24 -25 -26 -25 -25 -26 -27 -28 -29 -30 -31 -32 -32 -32 -32 -31 -31 -31 -31 -31 -32 -32 -32 -32 -32 -32 -32 -32 -32 -32 -31 -31 -30 -30 -30 -29 -28 -28
-26 -26 -25 -26 -27 -28 -29 -30 -31 -32 -32 -33 -33 -33 -32 -31 -31 -30 -31 -32 -32 -33 -32 -32 -32 -32 -32 -31 -31 -31 -31 -31 -31 -30 -30 -30 -29 -29
-26 -26 -27 -28 -29 -30 -31 -31 -32 -33 -33 -33 -33 -33 -32 -32 -31 -31 -31 -32 -33 -33 -32 -32 -32 -31 -31 -30 -31 -30 -30 -30 -30 -30 -30 -30 -29 -29
-27 -28 -29 -30 -30 -31 -32 -32 -33 -33 -34 -33 -33 -33 -32 -32 -32 -32 -32 -33 -33 -33 -32 -32 -31 -31 -31 -30 -30 -30 -30 -30 -30 -30 -30 -30 -30 -30
-29 -30 -30 -31 -31 -32 -33 -33 -34 -34 -33 -33 -33 -32 -32 -32 -32 -32 -32 -33 -33 -32 -32 -33 -31 -31 -31 -31 -31 -31 -31 -31 -31 -30 -30 -30 -30 -30
-30 -31 -31 -31 -32 -33 -34 -34 -34 -34 -34 -33 -33 -33 -33 -33 -33 -33 -33 -33 -33 -32 -32 -33 -32 -32 -33 -34 -34 -35 -34 -34 -34 -33 -32 -31 -31 -31
-30 -31 -31 -32 -33 -33 -34 -35 -35 -34 -34 -34 -33 -33 -33 -33 -33 -33 -33 -33 -33 -33 -32 -33 -33 -34 -35 -35 -36 -36 -36 -37 -36 -36 -34 -32 -32 -32
-31 -32 -32 -33 -33 -34 -35 -35 -35 -35 -35 -34 -34 -33 -33 -33 -33 -33 -34 -34 -33 -33 -33 -33 -34 -35 -35 -36 -36 -37 -37 -37 -37 -37 -35 -34 -33 -33
-32 -32 -33 -33 -34 -35 -35 -35 -35 -35 -35 -35 -35 -34 -34 -34 -34 -34 -34 -34 -34 -33 -34 -34 -35 -35 -36 -36 -37 -38 -37 -37 -37 -36 -35 -34 -34 -33
-33 -33 -33 -34 -35 -35 -35 -35 -35 -35 -35 -35 -35 -35 -35 -34 -34 -34 -34 -34 -34 -34 -34 -35 -35 -36 -36 -37 -38 -38 -38 -37 -36 -35 -35 -34 -34 -33
-33 -33 -34 -34 -35 -35 -35 -35 -35 -36 -36 -36 -36 -36 -36 -35 -35 -35 -35 -35 -34 -34 -35 -35 -36 -36 -36 -37 -38 -38 -37 -37 -36 -35 -35 -35 -35 -34
-33 -34 -34 -34 -35 -35 -35 -35 -35 -36 -36 -36 -36 -36 -36 -36 -35 -35 -35 -35 -35 -34 -35 -35 -36 -36 -37 -37 -38 -37 -37 -36 -36 -36 -36 -35 -34 -34
-34 -34 -34 -35 -35 -35 -35 -35 -35 -36 -36 -36 -36 -36 -36 -36 -35 -35 -35 -35 -35 -35 -35 -36 -36 -36 -37 -37 -37 -37 -36 -36 -36 -36 -35 -35 -35 -34
-34 -34 -34 -35 -35 -35 -35 -35 -36 -36 -36 -36 -36 -36 -37 -36 -36 -36 -35 -35 -35 -35 -35 -36 -36 -36 -36 -37 -37 -36 -36 -36 -36 -36 -35 -35 -34 -34
-34 -34 -35 -35 -35 -35 -36 -36 -36 -36 -36 -36 -36 -37 -37 -37 -37 -36 -36 -35 -35 -35 -35 -35 -36 -36 -36 -36 -37 -36 -36 -36 -36 -35 -35 -35 -35 -34
-34 -34 -35 -35 -36 -36 -36 -36 -36 -36 -36 -36 -36 -37 -37 -37 -37 -36 -36 -36 -36 -35 -35 -35 -36 -36 -36 -36 -36 -36 -36 -36 -35 -35 -35 -35 -34 -34
-34 -34 -35 -36 -36 -36 -36 -36 -36 -36 -36 -36 -37 -37 -37 -37 -37 -37 -36 -36 -36 -36 -35 -35 -36 -36 -36 -36 -36 -36 -36 -36 -35 -35 -35 -35 -35 -34
-35 -35 -35 -36 -36 -36 -36 -36 -37 -36 -36 -37 -37 -37 -37 -37 -37 -37 -37 -36 -36 -36 -36 -35 -36 -36 -36 -36 -36 -36 -36 -36 -36 -35 -35 -35 -34 -34
-35 -35 -35 -36 -37 -37 -36 -36 -37 -37 -36 -37 -37 -37 -37 -37 -37 -37 -37 -37 -36 -36 -36 -36 -36 -36 -35 -36 -36 -36 -36 -35 -36 -35 -35 -35 -34 -34

GFSNE_500_temp_036.txt.gz
Temp
-20 -21 -21 -22 -22 -23 -23 -23 -25 -26 -26 -26 -27 -28 -29 -29 -29 -30 -30 -30 -30 -30 -30 -31 -30 -30 -30 -29 -29 -29 -29 -29 -29 -29 -29 -29 -29 -27
-21 -22 -22 -23 -23 -23 -24 -25 -26 -27 -28 -28 -29 -29 -30 -30 -30 -31 -31 -31 -32 -32 -32 -32 -31 -31 -30 -30 -29 -29 -29 -29 -29 -29 -29 -29 -29 -29
-22 -23 -23 -23 -24 -25 -25 -26 -27 -28 -29 -30 -30 -30 -31 -31 -31 -32 -32 -32 -33 -33 -32 -32 -32 -31 -30 -30 -29 -29 -29 -29 -29 -29 -29 -29 -29 -30
-22 -24 -24 -24 -25 -25 -27 -28 -29 -30 -30 -30 -31 -31 -31 -32 -32 -32 -33 -33 -33 -33 -33 -32 -32 -31 -30 -30 -29 -29 -30 -30 -31 -31 -31 -30 -30 -29
-23 -24 -24 -25 -26 -26 -28 -29 -30 -30 -30 -31 -32 -32 -32 -33 -33 -34 -34 -34 -33 -33 -32 -32 -32 -31 -30 -30 -30 -30 -31 -31 -31 -31 -31 -31 -30 -30
-24 -25 -25 -26 -27 -29 -30 -30 -30 -30 -31 -32 -32 -32 -33 -33 -34 -34 -34 -34 -33 -33 -32 -32 -32 -31 -31 -31 -31 -32 -32 -32 -32 -32 -32 -31 -31 -30
-25 -25 -26 -27 -29 -30 -31 -31 -31 -31 -32 -32 -33 -33 -34 -34 -34 -34 -34 -33 -33 -32 -33 -33 -31 -32 -31 -32 -32 -32 -32 -31 -31 -31 -31 -31 -31 -31
-25 -26 -28 -29 -30 -31 -31 -31 -31 -31 -32 -33 -33 -34 -34 -34 -34 -34 -34 -33 -33 -33 -33 -34 -32 -32 -32 -32 -32 -32 -32 -31 -31 -31 -31 -30 -30 -31
-26 -28 -29 -30 -31 -31 -31 -31 -31 -32 -33 -33 -34 -34 -35 -34 -34 -34 -34 -34 -33 -33 -33 -34 -33 -33 -33 -32 -32 -32 -32 -32 -31 -31 -31 -30 -30 -30
-27 -29 -30 -31 -31 -31 -31 -31 -31 -32 -33 -33 -34 -35 -35 -35 -35 -35 -35 -35 -34 -33 -33 -34 -33 -34 -34 -33 -32 -32 -32 -32 -32 -31 -31 -31 -30 -30
-29 -30 -31 -31 -31 -31 -31 -31 -32 -33 -33 -34 -34 -35 -35 -35 -35 -35 -35 -35 -35 -34 -33 -34 -34 -34 -34 -33 -32 -33 -32 -32 -33 -33 -33 -32 -31 -30
-30 -31 -31 -32 -32 -32 -32 -32 -32 -33 -34 -34 -35 -35 -35 -35 -35 -35 -35 -35 -35 -35 -33 -35 -34 -34 -34 -34 -33 -33 -34 -34 -34 -34 -34 -34 -34 -32
-31 -32 -32 -32 -32 -32 -32 -33 -33 -34 -34 -34 -35 -35 -35 -35 -35 -35 -35 -35 -35 -35 -34 -35 -35 -34 -34 -34 -34 -34 -35 -35 -36 -36 -37 -36 -36 -35
-32 -32 -32 -32 -32 -32 -33 -33 -34 -34 -34 -35 -35 -36 -36 -36 -35 -35 -36 -36 -35 -35 -35 -35 -35 -34 -34 -35 -34 -35 -36 -37 -38 -38 -37 -37 -36 -36
-32 -32 -32 -32 -32 -33 -33 -34 -34 -35 -35 -35 -35 -36 -36 -36 -36 -36 -36 -36 -36 -35 -35 -35 -35 -35 -35 -35 -35 -36 -37 -38 -38 -37 -37 -37 -36 -36
-32 -32 -32 -32 -33 -34 -34 -35 -35 -35 -35 -35 -36 -36 -36 -36 -36 -36 -36 -36 -36 -36 -35 -35 -35 -35 -35 -35 -36 -36 -37 -37 -37 -37 -37 -36 -36 -36
-31 -32 -32 -33 -33 -34 -34 -35 -35 -35 -35 -36 -36 -36 -36 -36 -36 -36 -36 -36 -36 -36 -36 -35 -35 -35 -36 -36 -36 -37 -37 -37 -37 -37 -36 -35 -35 -35
-32 -33 -33 -33 -34 -34 -35 -35 -35 -36 -36 -36 -36 -36 -36 -36 -36 -37 -36 -36 -37 -36 -36 -36 -36 -35 -36 -36 -36 -37 -37 -37 -36 -36 -36 -35 -35 -34
-33 -33 -34 -34 -34 -34 -35 -36 -36 -36 -36 -36 -36 -36 -36 -36 -37 -37 -37 -37 -37 -37 -36 -36 -36 -36 -36 -36 -36 -37 -37 -37 -36 -36 -36 -35 -35 -35
-33 -34 -34 -34 -35 -35 -35 -36 -36 -36 -36 -37 -37 -37 -37 -37 -37 -37 -37 -37 -37 -37 -36 -36 -36 -36 -36 -36 -36 -37 -36 -37 -36 -36 -36 -35 -35 -35
-34 -34 -34 -35 -35 -35 -36 -36 -36 -36 -37 -37 -37 -37 -37 -37 -37 -37 -37 -37 -37 -37 -36 -36 -36 -36 -36 -36 -36 -36 -36 -36 -36 -36 -36 -36 -35 -35
-34 -34 -34 -35 -35 -35 -36 -36 -36 -36 -37 -37 -37 -37 -37 -37 -37 -37 -37 -37 -37 -37 -37 -37 -36 -36 -36 -36 -36 -36 -36 -36 -36 -36 -36 -36 -35 -35
-35 -35 -35 -35 -36 -36 -36 -37 -36 -37 -37 -37 -37 -37 -37 -37 -37 -37 -37 -37 -37 -37 -37 -37 -37 -36 -36 -36 -36 -37 -36 -36 -36 -36 -36 -36 -36 -35

GFSNE_500_temp_039.txt.gz
Temp
-20 -20 -21 -21 -20 -21 -22 -23 -23 -23 -24 -25 -26 -27 -29 -30 -30 -30 -31 -31 -31 -31 -31 -31 -31 -31 -31 -31 -31 -30 -30 -30 -30 -29 -29 -28 -28 -28
-20 -20 -20 -21 -22 -22 -22 -23 -24 -25 -25 -26 -28 -29 -30 -30 -30 -31 -32 -32 -32 -32 -32 -32 -32 -32 -32 -32 -32 -31 -31 -31 -30 -29 -29 -29 -28 -28
-21 -21 -21 -22 -22 -23 -24 -24 -25 -26 -27 -29 -30 -30 -30 -30 -31 -32 -32 -32 -32 -33 -33 -33 -33 -33 -33 -32 -32 -32 -31 -30 -30 -29 -29 -28 -28 -28
-21 -22 -22 -23 -23 -24 -25 -25 -26 -27 -29 -30 -31 -31 -31 -31 -32 -32 -33 -33 -33 -33 -33 -33 -33 -33 -33 -32 -32 -32 -31 -30 -30 -29 -29 -28 -28 -28
-21 -22 -23 -24 -24 -25 -25 -26 -27 -29 -30 -30 -31 -31 -31 -32 -32 -33 -33 -34 -34 -33 -33 -33 -33 -32 -32 -32 -32 -31 -31 -30 -29 -29 -29 -29 -30 -30
-22 -23 -24 -24 -25 -26 -26 -27 -29 -30 -31 -31 -31 -31 -31 -32 -33 -33 -34 -34 -34 -34 -33 -33 -32 -32 -32 -32 -32 -31 -31 -30 -30 -30 -30 -31 -31 -31
-23 -23 -24 -25 -26 -26 -27 -29 -30 -31 -31 -31 -31 -31 -32 -33 -33 -34 -34 -34 -34 -34 -34 -33 -32 -33 -32 -32 -32 -31 -31 -30 -31 -31 -31 -31 -31 -31
-24 -25 -25 -26 -26 -27 -28 -30 -31 -31 -32 -31 -31 -32 -33 -33 -34 -34 -35 -35 -34 -34 -34 -34 -32 -33 -33 -32 -32 -32 -32 -32 -32 -31 -31 -31 -31 -31
-25 -25 -26 -26 -27 -29 -30 -31 -32 -32 -32 -32 -32 -32 -33 -34 -34 -35 -35 -35 -35 -34 -34 -35 -33 -33 -33 -32 -33 -33 -32 -32 -32 -32 -31 -31 -31 -31
-25 -26 -26 -27 -29 -30 -31 -32 -32 -32 -32 -32 -32 -33 -34 -34 -35 -35 -35 -35 -35 -35 -34 -35 -34 -34 -34 -33 -33 -33 -33 -32 -32 -32 -32 -31 -31 -31
-26 -26 -27 -29 -31 -31 -32 -32 -32 -32 -32 -32 -33 -34 -34 -34 -35 -35 -35 -35 -35 -35 -35 -35 -34 -34 -34 -34 -33 -33 -33 -32 -32 -32 -32 -32 -31 -31
-26 -28 -29 -31 -32 -32 -32 -32 -32 -32 -32 -33 -34 -34 -34 -35 -35 -35 -35 -35 -35 -35 -35 -35 -34 -34 -35 -35 -34 -33 -33 -33 -33 -33 -33 -33 -33 -32
-27 -30 -31 -32 -32 -32 -32 -32 -32 -33 -33 -34 -35 -35 -35 -35 -35 -35 -35 -35 -35 -35 -35 -35 -35 -34 -34 -35 -34 -34 -34 -34 -34 -35 -35 -36 -35 -35
-29 -31 -32 -32 -32 -32 -32 -32 -33 -33 -34 -34 -35 -35 -35 -35 -36 -36 -36 -36 -36 -35 -36 -36 -35 -35 -35 -35 -34 -35 -34 -35 -36 -37 -37 -37 -37 -36
-31 -32 -32 -32 -32 -32 -33 -33 -33 -34 -34 -35 -35 -36 -35 -36 -36 -36 -36 -36 -36 -36 -35 -36 -36 -35 -35 -35 -35 -35 -35 -36 -37 -37 -37 -36 -36 -36
-32 -32 -32 -32 -32 -32 -33 -33 -33 -34 -35 -35 -35 -36 -36 -36 -36 -36 -36 -36 -36 -36 -36 -35 -36 -36 -36 -35 -35 -36 -36 -37 -36 -37 -36 -36 -35 -35
-32 -32 -32 -33 -33 -33 -33 -33 -34 -34 -35 -35 -36 -36 -36 -36 -36 -36 -36 -36 -36 -36 -37 -36 -36 -36 -36 -35 -35 -36 -37 -37 -36 -36 -36 -35 -35 -35
-32 -32 -33 -33 -33 -33 -34 -34 -34 -35 -35 -36 -36 -36 -36 -36 -37 -36 -37 -36 -36 -37 -37 -37 -36 -36 -36 -36 -36 -36 -37 -36 -36 -36 -36 -35 -35 -35
-33 -33 -33 -33 -34 -34 -34 -34 -35 -35 -36 -36 -36 -36 -37 -37 -37 -37 -37 -37 -37 -37 -37 -37 -36 -36 -36 -36 -36 -37 -37 -36 -36 -36 -35 -35 -35 -35
-33 -33 -34 -34 -34 -35 -35 -35 -35 -36 -36 -36 -36 -37 -37 -37 -37 -37 -37 -37 -37 -37 -37 -37 -36 -36 -36 -36 -36 -37 -36 -36 -36 -36 -36 -35 -35 -35
-34 -34 -34 -35 -35 -35 -35 -35 -36 -36 -36 -36 -37 -37 -37 -37 -37 -37 -37 -37 -37 -37 -37 -37 -36 -36 -36 -36 -36 -36 -36 -36 -36 -36 -36 -35 -35 -35
-34 -34 -35 -35 -35 -35 -35 -36 -36 -36 -36 -37 -37 -37 -37 -37 -37 -37 -37 -37 -37 -37 -37 -37 -37 -36 -36 -36 -36 -36 -37 -36 -36 -36 -36 -35 -35 -35
-34 -35 -35 -35 -36 -36 -36 -36 -36 -36 -36 -37 -37 -37 -37 -37 -37 -37 -37 -37 -37 -37 -37 -37 -37 -37 -37 -36 -36 -36 -36 -37 -36 -36 -36 -36 -35 -35

GFSNE_500_temp_042.txt.gz
Temp
-20 -20 -20 -21 -21 -20 -21 -21 -21 -22 -23 -24 -24 -24 -25 -26 -26 -28 -30 -31 -30 -30 -31 -32 -32 -32 -32 -32 -31 -31 -31 -31 -30 -30 -29 -28 -27 -26
-21 -20 -21 -21 -21 -21 -21 -21 -22 -23 -23 -24 -25 -26 -26 -27 -28 -30 -31 -31 -31 -31 -32 -32 -32 -33 -33 -33 -33 -32 -32 -32 -31 -31 -30 -30 -29 -28
-21 -21 -21 -21 -21 -21 -21 -22 -23 -24 -24 -25 -26 -27 -27 -29 -30 -31 -31 -31 -31 -32 -32 -32 -33 -33 -33 -33 -33 -33 -32 -32 -32 -32 -31 -31 -30 -30
-21 -21 -21 -21 -22 -22 -22 -23 -24 -25 -25 -26 -27 -28 -30 -31 -31 -31 -31 -31 -32 -32 -32 -33 -33 -33 -33 -33 -33 -33 -32 -32 -32 -32 -31 -31 -30 -30
-21 -21 -21 -21 -22 -23 -23 -24 -25 -25 -26 -27 -28 -30 -31 -31 -31 -31 -31 -31 -32 -33 -33 -33 -33 -33 -33 -33 -32 -33 -33 -32 -32 -32 -31 -31 -30 -30
-21 -21 -22 -22 -23 -23 -24 -25 -25 -26 -27 -29 -30 -31 -31 -32 -32 -32 -32 -32 -33 -33 -33 -34 -34 -33 -33 -33 -33 -32 -33 -32 -32 -32 -31 -31 -30 -29
-21 -22 -22 -23 -23 -24 -25 -26 -26 -27 -29 -30 -31 -32 -32 -32 -32 -32 -32 -33 -33 -34 -34 -34 -34 -33 -33 -33 -33 -33 -33 -32 -32 -32 -31 -31 -30 -30
-22 -22 -22 -23 -24 -25 -26 -26 -28 -29 -30 -31 -32 -32 -32 -32 -32 -32 -33 -34 -34 -34 -34 -34 -34 -34 -33 -33 -33 -33 -33 -32 -32 -31 -31 -31 -30 -30
-22 -22 -23 -24 -25 -26 -27 -28 -29 -30 -31 -32 -32 -32 -32 -32 -32 -33 -34 -34 -34 -35 -35 -35 -35 -34 -34 -33 -33 -33 -33 -32 -32 -31 -31 -31 -31 -30
-23 -23 -24 -25 -26 -27 -28 -29 -30 -31 -32 -32 -32 -32 -32 -32 -33 -34 -34 -34 -35 -35 -35 -35 -35 -34 -34 -33 -33 -33 -34 -33 -33 -32 -32 -31 -31 -31
-23 -24 -25 -26 -27 -28 -30 -31 -32 -32 -32 -32 -32 -32 -33 -33 -34 -34 -35 -35 -35 -35 -35 -35 -35 -35 -35 -33 -33 -33 -34 -33 -33 -33 -32 -32 -32 -31
-24 -25 -26 -27 -29 -30 -31 -32 -32 -32 -32 -32 -32 -33 -33 -34 -34 -35 -35 -35 -35 -35 -35 -35 -35 -35 -35 -34 -33 -33 -34 -34 -33 -33 -33 -32 -32 -31
-24 -25 -26 -28 -30 -31 -32 -32 -32 -32 -32 -33 -33 -33 -34 -34 -35 -35 -35 -35 -35 -36 -36 -36 -36 -35 -34 -34 -34 -34 -34 -34 -34 -33 -33 -33 -34 -34
-25 -26 -27 -29 -31 -32 -32 -32 -32 -33 -33 -33 -33 -34 -34 -35 -36 -36 -36 -36 -36 -36 -36 -36 -36 -35 -35 -34 -35 -35 -35 -34 -34 -34 -36 -36 -36 -36
-27 -28 -30 -30 -31 -32 -32 -33 -33 -33 -33 -34 -34 -34 -35 -36 -36 -36 -36 -36 -36 -36 -36 -36 -36 -36 -35 -34 -35 -35 -35 -35 -35 -36 -36 -36 -36 -35
-28 -29 -30 -31 -31 -32 -32 -33 -33 -33 -33 -34 -34 -34 -35 -36 -36 -36 -36 -36 -36 -36 -36 -36 -36 -36 -35 -35 -36 -35 -35 -36 -36 -37 -36 -36 -35 -35
-28 -30 -30 -31 -31 -32 -33 -34 -34 -34 -34 -34 -34 -35 -35 -36 -36 -36 -37 -37 -36 -36 -36 -36 -36 -36 -36 -36 -36 -36 -36 -36 -36 -36 -36 -35 -35 -35
-30 -30 -31 -31 -32 -34 -34 -34 -34 -35 -35 -35 -35 -35 -36 -36 -36 -37 -37 -37 -37 -36 -36 -36 -36 -36 -36 -36 -36 -36 -36 -36 -36 -36 -36 -35 -35 -35
-31 -31 -31 -32 -33 -34 -34 -35 -35 -35 -35 -35 -35 -36 -36 -37 -37 -37 -37 -37 -37 -37 -36 -37 -37 -36 -36 -36 -36 -36 -36 -36 -36 -36 -36 -35 -35 -35
-32 -32 -32 -33 -34 -34 -34 -35 -35 -35 -35 -36 -36 -36 -36 -37 -37 -37 -37 -37 -37 -37 -37 -37 -37 -36 -36 -36 -36 -36 -36 -36 -36 -36 -35 -35 -35 -35
-32 -33 -33 -34 -34 -35 -35 -35 -36 -35 -35 -36 -36 -36 -37 -37 -37 -37 -37 -37 -37 -37 -37 -37 -37 -37 -37 -36 -36 -36 -36 -36 -36 -36 -36 -36 -35 -35
-33 -33 -34 -34 -34 -35 -36 -36 -36 -36 -36 -36 -36 -36 -37 -37 -37 -37 -37 -37 -37 -37 -37 -37 -37 -37 -37 -36 -36 -36 -36 -36 -36 -36 -36 -36 -35 -35
-33 -34 -35 -35 -35 -36 -36 -36 -37 -36 -36 -36 -36 -37 -37 -37 -37 -37 -37 -37 -37 -37 -37 -37 -37 -37 -37 -37 -36 -36 -36 -36 -36 -36 -36 -36 -35 -35

GFSNE_500_temp_045.txt.gz
Temp
-18 -18 -19 -20 -20 -20 -20 -21 -21 -22 -22 -22 -22 -23 -23 -23 -23 -24 -25 -26 -28 -29 -30 -31 -31 -31 -31 -32 -32 -32 -32 -32 -32 -31 -31 -31 -30 -29
-19 -19 -20 -20 -20 -21 -21 -21 -22 -22 -21 -22 -23 -23 -24 -25 -25 -26 -27 -28 -30 -31 -31 -31 -31 -31 -32 -32 -33 -32 -32 -32 -32 -32 -32 -31 -31 -30
-19 -20 -20 -21 -21 -21 -21 -21 -22 -22 -22 -22 -23 -24 -25 -25 -26 -27 -29 -30 -31 -31 -31 -31 -31 -32 -32 -33 -33 -33 -33 -32 -32 -32 -32 -32 -32 -31
-20 -20 -20 -21 -21 -21 -21 -21 -22 -22 -22 -23 -24 -25 -26 -27 -28 -29 -30 -31 -32 -32 -32 -32 -32 -32 -33 -33 -33 -33 -33 -32 -32 -32 -32 -32 -32 -32
-19 -20 -21 -21 -21 -21 -22 -22 -22 -23 -23 -24 -25 -26 -27 -29 -29 -31 -31 -32 -32 -32 -32 -32 -32 -33 -33 -33 -33 -33 -33 -32 -32 -32 -32 -32 -32 -32
-21 -21 -21 -22 -22 -22 -22 -23 -23 -24 -24 -25 -26 -27 -29 -30 -31 -32 -32 -32 -32 -32 -32 -32 -33 -33 -33 -34 -34 -34 -33 -33 -33 -33 -32 -32 -32 -32
-21 -22 -22 -22 -22 -22 -23 -24 -24 -25 -26 -27 -28 -30 -31 -32 -32 -32 -32 -32 -32 -32 -33 -34 -34 -34 -34 -34 -33 -33 -33 -33 -33 -33 -33 -32 -32 -32
-22 -22 -22 -22 -22 -23 -23 -24 -25 -26 -27 -29 -30 -31 -32 -32 -32 -32 -32 -32 -32 -33 -33 -34 -34 -34 -34 -34 -34 -34 -33 -33 -33 -33 -33 -33 -32 -31
-22 -22 -22 -22 -23 -23 -24 -24 -25 -27 -28 -30 -31 -32 -32 -32 -33 -33 -33 -33 -33 -34 -34 -34 -35 -35 -35 -34 -34 -34 -34 -33 -33 -33 -33 -32 -32 -32
-22 -22 -23 -23 -23 -24 -25 -26 -27 -27 -29 -30 -32 -32 -32 -33 -33 -33 -33 -33 -34 -34 -35 -34 -35 -35 -35 -35 -34 -34 -34 -33 -33 -33 -33 -32 -32 -32
-22 -22 -23 -23 -24 -25 -26 -27 -28 -29 -32 -32 -32 -32 -33 -33 -34 -34 -34 -34 -34 -35 -35 -35 -35 -35 -35 -35 -35 -34 -33 -34 -33 -33 -33 -33 -32 -32
-22 -23 -23 -24 -25 -25 -27 -29 -29 -31 -32 -33 -33 -33 -33 -33 -33 -34 -35 -35 -35 -35 -36 -35 -35 -35 -35 -35 -35 -34 -33 -34 -34 -34 -33 -33 -32 -32
-22 -23 -23 -25 -26 -26 -27 -28 -30 -31 -31 -32 -33 -34 -34 -34 -34 -34 -35 -35 -36 -36 -36 -35 -36 -36 -35 -35 -35 -35 -34 -34 -34 -34 -34 -33 -33 -33
-23 -24 -24 -25 -26 -28 -29 -30 -31 -31 -31 -32 -33 -34 -34 -34 -35 -34 -35 -35 -36 -36 -36 -36 -36 -36 -35 -36 -35 -35 -34 -35 -34 -34 -34 -34 -35 -35
-24 -25 -26 -27 -28 -29 -30 -30 -31 -31 -32 -33 -34 -35 -35 -35 -35 -35 -35 -36 -37 -37 -36 -36 -36 -36 -36 -36 -35 -35 -35 -35 -35 -35 -35 -36 -36 -35
-25 -26 -27 -28 -29 -30 -31 -31 -31 -32 -33 -34 -35 -35 -36 -35 -35 -36 -36 -36 -37 -37 -37 -36 -36 -36 -36 -36 -35 -35 -35 -35 -35 -36 -36 -36 -35 -35
-25 -27 -28 -29 -30 -31 -31 -32 -32 -33 -33 -34 -35 -36 -36 -36 -36 -36 -36 -37 -37 -37 -37 -36 -36 -36 -36 -36 -35 -35 -35 -35 -36 -36 -36 -36 -35 -35
-28 -29 -30 -31 -31 -31 -32 -33 -33 -34 -34 -34 -35 -36 -36 -36 -36 -36 -37 -37 -37 -37 -37 -37 -36 -36 -36 -36 -36 -36 -36 -36 -36 -36 -36 -36 -35 -35
-29 -31 -32 -32 -32 -32 -33 -33 -34 -34 -34 -35 -35 -36 -36 -36 -36 -37 -37 -37 -37 -37 -37 -37 -37 -36 -36 -36 -36 -36 -36 -36 -36 -36 -36 -36 -35 -35
-31 -32 -32 -32 -32 -33 -33 -34 -35 -35 -35 -35 -36 -36 -36 -36 -37 -37 -37 -37 -37 -37 -37 -37 -37 -37 -37 -36 -36 -36 -36 -36 -36 -36 -36 -36 -36 -35
-32 -32 -33 -33 -33 -33 -34 -34 -35 -36 -36 -36 -36 -36 -36 -37 -37 -37 -37 -37 -37 -37 -37 -37 -37 -37 -37 -37 -36 -36 -36 -36 -36 -36 -36 -36 -36 -35
-32 -33 -33 -33 -33 -34 -34 -35 -35 -36 -36 -37 -37 -36 -36 -37 -37 -37 -37 -37 -37 -37 -37 -37 -37 -37 -37 -37 -36 -36 -36 -36 -36 -36 -36 -36 -36 -36
-33 -33 -33 -33 -34 -35 -35 -36 -36 -36 -37 -37 -37 -37 -37 -37 -37 -37 -37 -37 -37 -37 -37 -37 -37 -37 -37 -37 -37 -36 -36 -36 -36 -36 -36 -36 -36 -35